Torna al catalogo

CAIYUN GUANGXE 01

AttivoScienzaSSO
NORAD 69540·PAYLOAD·🇨🇳 China
Questo nome del satellite non è ancora stato confermato da fonti ufficiali.

Lanciato Jun 15, 2026 da Jiuquan Satellite Launch Center

Loading…

Prossimi Passaggi (prossime 24 ore)

TLE

AggiornatoSource: Space-Track

Epoca: Sep 14, 2026, 11:11 UTC

1 69540U 26134C   26257.46633989  .00003722  00000-0  23763-3 0  9998
2 69540  97.6917 327.9255 0017733 337.4093  22.6353 15.09175629 13772

Traccia CAIYUN GUANGXE 01 in tempo reale con AllMySat

Download on the App Store